• Join FlightAware (Why Join?)
  • Login
  • US Flag GB Flag 
00:50 EST


 

Airport Tracker/Info


-or-


 

Live Flight TrackerFlight Track Log ✈ DAL3860 ✈ 23-Apr-2013 ✈ KCLE - KMSP

Flight Track Log - Related Links

Times and Time Zones

All times are in EDT time to prevent confusion due to time zone crossing. See the DAL3860 flight status page for this flight to view local times or setup timezone preferences in your user account.

Time Position Orientation Groundspeed Altitude Reporting Facility
EDT Latitude Longitude Course Direction KTS MPH feet Rate Location/Type
09:12 41.3919 -81.8783 252° West 155 178 1,800  Level Cleveland Center
09:13 41.3892 -81.9283 266° West 202 232 3,100 1,800 Climbing Cleveland Center
09:14 41.3967 -82.0086 277° West 227 261 5,300 2,400 Climbing Cleveland Center
09:15 41.3527 -82.2220 260° West  Level FlightAware Approximate
09:15 41.3869 -82.1025 262° West 247 284 8,200  Level Cleveland Center
09:16 41.3358 -82.3480 260° West  Level FlightAware Approximate
09:16 41.3689 -82.2017 256° West 265 305 10,800  Level Cleveland Center
09:17 41.3075 -82.4700 252° West  Level FlightAware Approximate
09:17 41.3486 -82.3036 255° West 275 316 13,100  Level Cleveland Center
09:18 41.3283 -82.4108 256° West 289 333 15,100 1,740 Climbing Cleveland Center
09:19 41.3078 -82.5264 257° West 310 357 16,600 1,260 Climbing Cleveland Center
09:20 41.2886 -82.6611 259° West 339 390 17,700 900 Climbing Cleveland Center
09:21 41.2714 -82.7961 260° West 359 413 18,500 900 Climbing Cleveland Center
09:22 41.2522 -82.9308 259° West 372 428 19,500 1,020 Climbing Cleveland Center
09:23 41.2678 -83.0694 279° West 372 428 20,600 720 Climbing Cleveland Center
09:24 41.3047 -83.1897 292° West 358 412 21,000 360 Climbing Cleveland Center
09:25 41.3439 -83.3047 294° West 351 404 21,400 960 Climbing Cleveland Center
09:26 41.3786 -83.4197 292° West 351 404 23,000 1,500 Climbing Cleveland Center
09:27 41.4153 -83.5319 294° West 346 398 24,400 1,320 Climbing Cleveland Center
09:28 41.4478 -83.6500 290° West 339 390 25,700 1,020 Climbing Cleveland Center
09:30 41.4639 -83.9175 275° West 346 398 27,800 660 Climbing Chicago Center
09:31 41.4700 -84.0706 273° West 347 399 28,000 60 Climbing Chicago Center
09:32 41.4750 -84.2042 273° West 359 413 28,000  Level Chicago Center
09:33 41.4803 -84.3414 273° West 369 425 28,000  Level Chicago Center
09:34 41.4850 -84.4800 273° West 375 432 28,000 180 Level Chicago Center
09:35 41.4906 -84.6181 273° West 374 430 28,400 720 Climbing Chicago Center
09:36 41.4939 -84.7517 272° West 366 421 29,500 720 Climbing Chicago Center
09:37 41.4972 -84.8772 272° West 348 400 30,000 240 Climbing Chicago Center
09:38 41.5014 -85.0350 272° West 348 400 30,000  Level Chicago Center
09:40 41.5047 -85.1661 272° West 355 409 30,000  Level Chicago Center
09:41 41.5083 -85.3011 272° West 359 413 30,000  Level Chicago Center
09:42 41.5119 -85.4369 272° West 360 414 30,000  Level Chicago Center
09:43 41.5156 -85.5717 272° West 355 409 30,000  Level Chicago Center
09:44 41.5183 -85.7044 272° West 355 409 30,000  Level Chicago Center
09:45 41.5211 -85.8381 272° West 358 412 30,000  Level Chicago Center
09:46 41.5239 -85.9711 272° West 358 412 30,000  Level Chicago Center
09:47 41.5647 -86.0883 295° West 359 413 30,000  Level Chicago Center
09:48 41.6544 -86.2061 316° Northwest 374 430 30,000  Level Chicago Center
09:49 41.7278 -86.3047 315° West 374 430 30,000  Level Chicago Center
09:50 41.7992 -86.4061 313° West 373 429 30,000  Level Chicago Center
09:51 41.8733 -86.5056 315° West 376 433 30,000  Level Chicago Center
09:52 41.9458 -86.6072 314° West 377 434 30,000  Level Chicago Center
09:53 42.0239 -86.7158 314° West 381 438 30,000  Level Chicago Center
09:54 42.0972 -86.8167 314° West 380 437 30,000  Level Chicago Center
09:55 42.1703 -86.9192 314° West 382 440 30,000  Level Chicago Center
09:56 42.2556 -87.0417 313° West 378 435 30,000  Level Chicago Center
09:57 42.3272 -87.1419 314° West 376 433 30,000  Level Chicago Center
09:58 42.3994 -87.2450 314° West 381 438 30,000  Level Chicago Center
09:59 42.4731 -87.3503 313° West 387 445 30,000  Level Chicago Center
10:00 42.5467 -87.4539 314° West 386 444 30,000  Level Chicago Center
10:01 42.6289 -87.5733 313° West 387 445 30,000  Level Chicago Center
10:02 42.7031 -87.6800 313° West 387 445 30,000  Level Chicago Center
10:03 42.7781 -87.7869 314° West 389 448 30,000  Level Chicago Center
10:04 42.8522 -87.8953 313° West 391 450 30,000  Level Chicago Center
10:05 42.9397 -88.0233 313° West 393 452 30,000  Level Chicago Center
10:06 43.0136 -88.1336 313° West 392 451 30,000  Level Chicago Center
10:07 43.0881 -88.2422 313° West 391 450 30,000  Level Chicago Center
10:08 43.1597 -88.3556 311° West 392 451 30,000  Level Chicago Center
10:09 43.2269 -88.4711 309° West 385 443 30,000  Level Chicago Center
10:10 43.2942 -88.5881 308° West 385 443 30,000  Level Chicago Center
10:11 43.3636 -88.7053 309° West 388 447 30,000  Level Chicago Center
10:12 43.4322 -88.8228 309° West 389 448 30,000  Level Chicago Center
10:14 43.5108 -88.9611 308° West 390 449 30,000  Level Chicago Center
10:15 43.5783 -89.0789 308° West 389 448 30,000  Level Chicago Center
10:16 43.6467 -89.1975 309° West 394 453 30,000  Level Chicago Center
10:16 43.6694 -89.2372 308° West 393 452 30,000  Level Minneapolis Center
10:17 43.7483 -89.3761 308° West 392 451 30,000  Level Minneapolis Center
10:18 43.8147 -89.4953 308° West 392 451 30,000  Level Minneapolis Center
10:19 43.8833 -89.6144 309° West 392 451 30,000  Level Minneapolis Center
10:20 43.9494 -89.7339 308° West 393 452 30,000  Level Minneapolis Center
10:21 44.0169 -89.8542 308° West 394 453 30,000  Level Minneapolis Center
10:22 44.0850 -89.9753 308° West 396 456 30,000  Level Minneapolis Center
10:23 44.1483 -90.0989 306° West 394 453 30,000  Level Minneapolis Center
10:24 44.2003 -90.2553 295° West 383 441 30,000  Level Minneapolis Center
10:25 44.2461 -90.3864 296° West 379 436 30,000 -360 Level Minneapolis Center
10:26 44.2875 -90.5078 296° West 355 409 29,300 -840 Descending Minneapolis Center
10:27 44.3300 -90.6306 296° West 351 404 28,300 -1,020 Descending Minneapolis Center
10:28 44.3722 -90.7558 295° West 356 410 27,300 -1,020 Descending Minneapolis Center
10:30 44.4406 -90.9592 295° West 360 414 25,700 -1,080 Descending Chicago Center
10:30 44.4597 -91.0147 296° West 359 413 25,100 -1,500 Descending Minneapolis Center
10:32 44.5083 -91.1617 295° West 352 405 23,300 -1,500 Descending Minneapolis Center
10:33 44.5478 -91.2825 295° West 346 398 21,800 -1,620 Descending Minneapolis Center
10:34 44.5956 -91.4303 294° West 348 400 20,000 -1,680 Descending Minneapolis Center
10:35 44.6397 -91.5639 295° West 361 415 18,400 -1,440 Descending Minneapolis Center
10:36 44.6811 -91.6922 294° West 372 428 17,100 -1,380 Descending Minneapolis Center
10:37 44.7236 -91.8217 295° West 367 422 15,600 -1,440 Descending Minneapolis Center
10:37 44.7533 -91.8786 306° West 382 440 15,100 -1,620 Descending FAA TRACON SMA TRACON (SMA)
10:37 44.7686 -91.9303 293° West 378 435 14,500 -1,680 Descending FAA TRACON SMA TRACON (SMA)
10:38 44.7825 -91.9719 295° West 379 436 14,000 -1,380 Descending FAA TRACON SMA TRACON (SMA)
10:38 44.7956 -92.0136 294° West 380 437 13,600 -1,500 Descending FAA TRACON SMA TRACON (SMA)
10:38 44.8097 -92.0647 291° West 371 427 13,000 -1,620 Descending FAA TRACON SMA TRACON (SMA)
10:39 44.8225 -92.1031 295° West 361 415 12,500 -1,500 Descending FAA TRACON SMA TRACON (SMA)
10:39 44.8342 -92.1406 294° West 347 399 12,000 -1,560 Descending FAA TRACON SMA TRACON (SMA)
10:39 44.8469 -92.1883 291° West 341 392 11,500 -1,500 Descending FAA TRACON SMA TRACON (SMA)
10:40 44.8597 -92.2258 296° West 343 395 11,000 -1,500 Descending FAA TRACON SMA TRACON (SMA)
10:40 44.8725 -92.2644 295° West 347 399 10,500 -1,500 Descending FAA TRACON SMA TRACON (SMA)
10:40 44.8794 -92.3150 281° West 347 399 10,000 -780 Descending FAA TRACON SMA TRACON (SMA)
10:41 44.8750 -92.3556 261° West 344 396 10,000  Level FAA TRACON SMA TRACON (SMA)
10:41 44.8608 -92.3914 241° Southwest 345 397 10,000  Level FAA TRACON SMA TRACON (SMA)
10:41 44.8397 -92.4333 235° Southwest 345 397 10,000  Level FAA TRACON SMA TRACON (SMA)
10:42 44.8222 -92.4658 233° Southwest 342 394 10,000 -180 Level FAA TRACON SMA TRACON (SMA)
10:42 44.8069 -92.4958 234° Southwest 323 372 9,900 -600 Descending FAA TRACON SMA TRACON (SMA)
10:42 44.7931 -92.5319 242° Southwest 286 329 9,600 -1,380 Descending FAA TRACON SMA TRACON (SMA)
10:43 44.7825 -92.5614 243° Southwest 272 313 9,000 -900 Descending FAA TRACON SMA TRACON (SMA)
10:43 44.7725 -92.5908 244° Southwest 269 310 9,000  Level FAA TRACON SMA TRACON (SMA)
10:43 44.7603 -92.6281 245° Southwest 272 313 9,000  Level FAA TRACON SMA TRACON (SMA)
10:44 44.7506 -92.6578 245° Southwest 271 312 9,000 -480 Level FAA TRACON SMA TRACON (SMA)
10:44 44.7417 -92.6869 247° West 268 308 8,700 -1,320 Descending FAA TRACON SMA TRACON (SMA)
10:45 44.7303 -92.7236 246° West 265 305 8,100 -1,680 Descending FAA TRACON SMA TRACON (SMA)
10:45 44.7214 -92.7519 246° West 260 299 7,600 -1,560 Descending FAA TRACON SMA TRACON (SMA)
10:45 44.7169 -92.7819 258° West 259 298 7,100 -1,500 Descending FAA TRACON SMA TRACON (SMA)
10:45 44.7150 -92.8194 266° West 251 289 6,600 -1,500 Descending FAA TRACON SMA TRACON (SMA)
10:46 44.7131 -92.8497 265° West 251 289 6,100 -1,500 Descending FAA TRACON SMA TRACON (SMA)
10:46 44.7117 -92.8800 266° West 252 290 5,600 -1,500 Descending FAA TRACON SMA TRACON (SMA)
10:46 44.7208 -92.9136 291° West 251 289 5,100 -1,380 Descending FAA TRACON SMA TRACON (SMA)
10:47 44.7325 -92.9364 306° West 237 273 4,700 -1,080 Descending FAA TRACON SMA TRACON (SMA)
10:47 44.7447 -92.9578 309° West 229 264 4,400 -780 Descending FAA TRACON SMA TRACON (SMA)
10:47 44.7575 -92.9772 313° West 223 257 4,200 -600 Descending FAA TRACON SMA TRACON (SMA)
10:48 44.7719 -93.0003 311° West 208 239 4,000 -300 Descending FAA TRACON SMA TRACON (SMA)
10:48 44.7825 -93.0172 311° West 191 220 4,000  Level FAA TRACON SMA TRACON (SMA)